This is the latest recevied weather packets stored in our database for station/object HF3P-11. If no packets are shown the sender has not sent any weather packets the latest 10 day(s).
| Time | Temp. | Humidity | Pressure | Rain* | Wind** | Luminosity | Snow |
|---|---|---|---|---|---|---|---|
| 1777622404 | 15° C | 49% | 1020.4 hPa | 0 mm | - | - | - |
| 1777622096 | 15° C | 51% | 1020.5 hPa | 0 mm | - | - | - |
| 1777621803 | 15° C | 50% | 1020.4 hPa | 0 mm | - | - | - |
| 1777621496 | 15° C | 50% | 1020.4 hPa | 0 mm | - | - | - |
| 1777621205 | 14.44° C | 51% | 1020.6 hPa | 0 mm | - | - | - |
| 1777620896 | 14.44° C | 52% | 1020.6 hPa | 0 mm | - | - | - |
| 1777620604 | 14.44° C | 51% | 1020.5 hPa | 0 mm | - | - | - |
| 1777620297 | 14.44° C | 51% | 1020.4 hPa | 0 mm | - | - | - |
| 1777620005 | 14.44° C | 52% | 1020.6 hPa | 0 mm | - | - | - |
| 1777619696 | 13.89° C | 52% | 1020.4 hPa | 0 mm | - | - | - |
| 1777619404 | 13.89° C | 52% | 1020.5 hPa | 0 mm | - | - | - |
| 1777619105 | 13.89° C | 51% | 1020.5 hPa | 0 mm | - | - | - |
| 1777618797 | 13.89° C | 51% | 1020.4 hPa | 0 mm | - | - | - |
| 1777618504 | 14.44° C | 50% | 1020.5 hPa | 0 mm | - | - | - |
| 1777618204 | 14.44° C | 49% | 1020.4 hPa | 0 mm | - | - | - |
| 1777617896 | 15° C | 48% | 1020.5 hPa | 0 mm | - | - | - |
| 1777617604 | 15° C | 49% | 1020.5 hPa | 0 mm | - | - | - |
| 1777617297 | 15° C | 49% | 1020.5 hPa | 0 mm | - | - | - |
| 1777617005 | 14.44° C | 51% | 1020.5 hPa | 0 mm | - | - | - |
| 1777616697 | 13.89° C | 50% | 1020.5 hPa | 0 mm | - | - | - |
| 1777616404 | 13.89° C | 52% | 1020.5 hPa | 0 mm | - | - | - |
| 1777616096 | 13.33° C | 52% | 1020.4 hPa | 0 mm | - | - | - |
| 1777615804 | 13.33° C | 51% | 1020.6 hPa | 0 mm | - | - | - |
| 1777615497 | 14.44° C | 51% | 1020.3 hPa | 0 mm | - | - | - |
| 1777615204 | 14.44° C | 51% | 1020.4 hPa | 0 mm | - | - | - |
* Rain latest hour (hover to see other rain measurements)
** Current wind speed in m/s (hover to see current wind gust speed)